sat.trackr.live / text

‹ back to catalog

LEMUR-2-KRISH

NORAD 64561 · 2025-135AK

PAYLOAD ACTIVE UNKNOWN

§ Identity

Operator
Country
US
Launch date
2025-06-23
Launch site
AFWTR
Launch vehicle
Mass (kg)
RCS (m²)

Purposes: earth_obs

External: N2YO · Heavens-Above · Gunter

§ Orbital elements

Epoch: 2026-09-19T06:43:34.089024Z

Period
96.20 min
Inclination
97.7823°
Eccentricity
0.0001800
Mean motion
14.96940388 rev/d
Perigee alt
575.1 km
Apogee alt
577.6 km
Semi-major
6,954.5 km
B*
3.0858e-4
RAAN
16.5939°
Arg perigee
95.3276°
Mean anomaly
264.8151°
Rev number
6,799

§ Raw data

LEMUR-2-KRISH1 64561U 25135AK  26262.28025566  .00003487  00000+0  30858-3 0  99982 64561  97.7823  16.5939 0001800  95.3276 264.8151 14.96940388 67994

JSON: /api/v1/satellites/64561 · /tle

For live sub-satellite position, see the globe view (requires WebGL).

§ Visibility from observer

Set your observer location to see the next 7 days of passes ≥ 10°. The values pass through the URL so the page stays shareable.

No JS? Fill the form by hand. The geolocation button needs JavaScript.